Location: Sungai Jaoh
(2.9167°N, 113.9167°E)
Time: 15:27:31
(UTC+00:00)

Cosmos 405 Rocket - Pass Details

Date: 30 November 2020
Orbit: 489 x 554 km, 81.3° (Epoch: 26 January)

Event Time Altitude Azimuth Distance (km) Brightness Sun altitude
Rises 21:01:35 0° 173° (S) 2,564 6.6 -17.7°
Reaches altitude 10° 21:03:47 10° 166° (SSE) 1,677 5.8 -17.2°
Maximum altitude 21:07:15 40° 95° (E) 728 4.0 -16.4°
Drops below altitude 10° 21:10:41 10° 24° (NNE) 1,670 5.3 -15.6°
Sets 21:12:52 0° 17° (NNE) 2,551 6.2 -15.1°
